| time (UTC) | temp F | wind direction | speed knots | gust knots | rain 1hr in | rain 24hr in | rain mn in | humidity % | barometer mb |
| 20260508210030 | 71 | 152 | 2.6 | 6.1 | 0.00 | 0.00 | 0.00 | 34 | 1013.7 |
| 20260508205530 | 71 | 82 | 0.9 | 2.6 | 0.00 | 0.00 | 0.00 | 35 | 1013.7 |
| 20260508205031 | 70 | 342 | 0.0 | 4.3 | 0.00 | 0.00 | 0.00 | 36 | 1013.9 |
| 20260508204535 | 70 | 347 | 0.9 | 4.3 | 0.00 | 0.00 | 0.00 | 36 | 1014.0 |
| 20260508204030 | 70 | 291 | 1.7 | 4.3 | 0.00 | 0.00 | 0.00 | 35 | 1014.0 |
| 20260508203529 | 72 | 225 | 0.9 | 3.5 | 0.00 | 0.00 | 0.00 | 33 | 1013.9 |
| 20260508203031 | 71 | 86 | 0.0 | 5.2 | 0.00 | 0.00 | 0.00 | 34 | 1013.9 |
| 20260508202529 | 71 | 256 | 0.9 | 6.1 | 0.00 | 0.00 | 0.00 | 34 | 1014.0 |
| 20260508202028 | 70 | 241 | 1.7 | 6.1 | 0.00 | 0.00 | 0.00 | 35 | 1014.1 |
| 20260508201528 | 71 | 162 | 0.9 | 5.2 | 0.00 | 0.00 | 0.00 | 34 | 1014.2 |
| 20260508201026 | 72 | 176 | 1.7 | 5.2 | 0.00 | 0.00 | 0.00 | 32 | 1014.2 |
| 20260508200527 | 73 | 58 | 1.7 | 4.3 | 0.00 | 0.00 | 0.00 | 32 | 1014.3 |
| 20260508200031 | 72 | 47 | 0.0 | 8.7 | 0.00 | 0.00 | 0.00 | 34 | 1014.2 |
| 20260508195526 | 71 | 149 | 1.7 | 8.7 | 0.00 | 0.00 | 0.00 | 34 | 1014.4 |
| 20260508195025 | 73 | 256 | 1.7 | 3.5 | 0.00 | 0.00 | 0.00 | 31 | 1014.5 |
| 20260508194545 | 73 | 13 | 1.7 | 2.6 | 0.00 | 0.00 | 0.00 | 30 | 1014.5 |
| 20260508194024 | 72 | 314 | 0.0 | 4.3 | 0.00 | 0.00 | 0.00 | 32 | 1014.8 |
| 20260508193524 | 70 | 249 | 0.0 | 4.3 | 0.00 | 0.00 | 0.00 | 34 | 1014.8 |
| 20260508193024 | 70 | 203 | 0.9 | 4.3 | 0.00 | 0.00 | 0.00 | 33 | 1014.9 |
| 20260508192523 | 70 | 20 | 1.7 | 4.3 | 0.00 | 0.00 | 0.00 | 33 | 1014.8 |
| 20260508192023 | 70 | 321 | 0.9 | 7.8 | 0.00 | 0.00 | 0.00 | 32 | 1014.9 |
| 20260508191522 | 70 | 315 | 1.7 | 5.2 | 0.00 | 0.00 | 0.00 | 32 | 1015.0 |
| 20260508191022 | 71 | 346 | 0.9 | 5.2 | 0.00 | 0.00 | 0.00 | 31 | 1015.1 |
| 20260508190521 | 71 | 75 | 1.7 | 7.8 | 0.00 | 0.00 | 0.00 | 29 | 1015.2 |
| 20260508190021 | 71 | 242 | 1.7 | 7.8 | 0.00 | 0.00 | 0.00 | 29 | 1015.4 |
| 20260508185520 | 71 | 53 | 1.7 | 6.1 | 0.00 | 0.00 | 0.00 | 30 | 1015.2 |
| 20260508185019 | 72 | 288 | 0.9 | 6.1 | 0.00 | 0.00 | 0.00 | 30 | 1015.4 |
| 20260508184524 | 72 | 266 | 0.9 | 6.1 | 0.00 | 0.00 | 0.00 | 30 | 1015.4 |
| 20260508184020 | 72 | 243 | 1.7 | 7.0 | 0.00 | 0.00 | 0.00 | 29 | 1015.4 |
| 20260508183521 | 72 | 76 | 1.7 | 7.0 | 0.00 | 0.00 | 0.00 | 29 | 1015.5 |
| 20260508183022 | 73 | 117 | 1.7 | 7.8 | 0.00 | 0.00 | 0.00 | 28 | 1015.6 |
| 20260508182522 | 72 | 23 | 2.6 | 7.8 | 0.00 | 0.00 | 0.00 | 28 | 1015.5 |
| 20260508182022 | 71 | 32 | 1.7 | 4.3 | 0.00 | 0.00 | 0.00 | 29 | 1015.5 |
| 20260508181526 | 70 | 22 | 0.9 | 5.2 | 0.00 | 0.00 | 0.00 | 30 | 1015.5 |
| 20260508181020 | 70 | 143 | 0.9 | 5.2 | 0.00 | 0.00 | 0.00 | 29 | 1015.7 |
| 20260508180516 | 71 | 130 | 0.9 | 4.3 | 0.00 | 0.00 | 0.00 | 28 | 1015.8 |
| 20260508180017 | 71 | 93 | 0.0 | 5.2 | 0.00 | 0.00 | 0.00 | 33 | 1016.0 |
| 20260508175516 | 71 | 293 | 1.7 | 5.2 | 0.00 | 0.00 | 0.00 | 28 | 1016.2 |
| 20260508175017 | 71 | 240 | 1.7 | 7.8 | 0.00 | 0.00 | 0.00 | 27 | 1016.1 |
| 20260508174511 | 71 | 233 | 1.7 | 7.8 | 0.00 | 0.00 | 0.00 | 27 | 1016.1 |
| 20260508174009 | 72 | 13 | 0.0 | 4.3 | 0.00 | 0.00 | 0.00 | 29 | 1016.1 |
| 20260508173509 | 71 | 127 | 0.9 | 4.3 | 0.00 | 0.00 | 0.00 | 29 | 1016.2 |
| 20260508173013 | 70 | 15 | 1.7 | 5.2 | 0.00 | 0.00 | 0.00 | 29 | 1016.2 |
| 20260508172509 | 71 | 64 | 1.7 | 7.8 | 0.00 | 0.00 | 0.00 | 26 | 1016.4 |
| 20260508172006 | 71 | 25 | 1.7 | 7.8 | 0.00 | 0.00 | 0.00 | 28 | 1016.5 |
| 20260508171511 | 70 | 195 | 1.7 | 6.1 | 0.00 | 0.00 | 0.00 | 32 | 1016.4 |
| 20260508171005 | 69 | 202 | 0.9 | 5.2 | 0.00 | 0.00 | 0.00 | 30 | 1016.5 |
| 20260508170505 | 69 | 164 | 1.7 | 5.2 | 0.00 | 0.00 | 0.00 | 32 | 1016.6 |
| 20260508170004 | 71 | 236 | 1.7 | 5.2 | 0.00 | 0.00 | 0.00 | 29 | 1016.8 |
| 20260508165504 | 71 | 254 | 1.7 | 7.8 | 0.00 | 0.00 | 0.00 | 32 | 1016.7 |
| 20260508165001 | 70 | 86 | 0.9 | 5.2 | 0.00 | 0.00 | 0.00 | 33 | 1017.0 |
| 20260508164505 | 70 | 25 | 0.9 | 5.2 | 0.00 | 0.00 | 0.00 | 32 | 1017.0 |
| 20260508164001 | 69 | 148 | 1.7 | 4.3 | 0.00 | 0.00 | 0.00 | 32 | 1017.0 |
| 20260508163502 | 69 | 68 | 0.9 | 4.3 | 0.00 | 0.00 | 0.00 | 32 | 1017.1 |
| 20260508163106 | 69 | 166 | 0.9 | 4.3 | 0.00 | 0.00 | 0.00 | 31 | 1017.1 |
| 20260508162559 | 69 | 120 | 0.9 | 4.3 | 0.00 | 0.00 | 0.00 | 31 | 1017.2 |
| 20260508162058 | 69 | 94 | 1.7 | 4.3 | 0.00 | 0.00 | 0.00 | 31 | 1017.2 |
| 20260508161606 | 68 | 358 | 0.0 | 5.2 | 0.00 | 0.00 | 0.00 | 30 | 1017.3 |
| 20260508161056 | 67 | 233 | 1.7 | 7.0 | 0.00 | 0.00 | 0.00 | 33 | 1017.5 |
| 20260508160555 | 67 | 100 | 1.7 | 7.0 | 0.00 | 0.00 | 0.00 | 34 | 1017.4 |
| 20260508160056 | 67 | 26 | 3.5 | 7.8 | 0.00 | 0.00 | 0.00 | 31 | 1017.5 |
| 20260508155554 | 68 | 14 | 3.5 | 7.8 | 0.00 | 0.00 | 0.00 | 28 | 1017.6 |
| 20260508155053 | 67 | 215 | 1.7 | 6.1 | 0.00 | 0.00 | 0.00 | 34 | 1017.8 |
| 20260508154049 | 66 | 134 | 0.0 | 6.1 | 0.00 | 0.00 | 0.00 | 34 | 1018.0 |
| 20260508153548 | 64 | 255 | 0.9 | 6.1 | 0.00 | 0.00 | 0.00 | 37 | 1017.9 |
| 20260508153052 | 64 | 77 | 0.9 | 6.1 | 0.00 | 0.00 | 0.00 | 37 | 1017.9 |
| 20260508152548 | 64 | 354 | 1.7 | 5.2 | 0.00 | 0.00 | 0.00 | 38 | 1018.1 |
| 20260508152045 | 64 | 69 | 1.7 | 5.2 | 0.00 | 0.00 | 0.00 | 38 | 1018.0 |
| 20260508151545 | 64 | 4 | 2.6 | 5.2 | 0.00 | 0.00 | 0.00 | 38 | 1018.1 |
| 20260508151042 | 63 | 42 | 0.9 | 5.2 | 0.00 | 0.00 | 0.00 | 41 | 1018.0 |
| 20260508150542 | 62 | 135 | 2.6 | 7.0 | 0.00 | 0.00 | 0.00 | 43 | 1017.9 |
| 20260508150041 | 62 | 326 | 0.9 | 7.8 | 0.00 | 0.00 | 0.00 | 42 | 1018.1 |
| 20260508145541 | 62 | 316 | 3.5 | 7.8 | 0.00 | 0.00 | 0.00 | 43 | 1018.2 |
| 20260508145039 | 62 | 8 | 2.6 | 7.0 | 0.00 | 0.00 | 0.00 | 44 | 1018.3 |
| 20260508144039 | 62 | 236 | 1.7 | 6.1 | 0.00 | 0.00 | 0.00 | 45 | 1018.3 |
| 20260508143538 | 62 | 42 | 0.9 | 6.1 | 0.00 | 0.00 | 0.00 | 46 | 1018.4 |
| 20260508143044 | 61 | 8 | 2.6 | 6.1 | 0.00 | 0.00 | 0.00 | 47 | 1018.4 |
| 20260508142535 | 60 | 354 | 1.7 | 5.2 | 0.00 | 0.00 | 0.00 | 48 | 1018.4 |
| 20260508142034 | 60 | 72 | 1.7 | 4.3 | 0.00 | 0.00 | 0.00 | 46 | 1018.4 |
| 20260508141532 | 60 | 65 | 0.0 | 7.0 | 0.00 | 0.00 | 0.00 | 49 | 1018.4 |
| 20260508141033 | 59 | 347 | 1.7 | 7.0 | 0.00 | 0.00 | 0.00 | 48 | 1018.4 |
| 20260508140533 | 59 | 23 | 0.0 | 5.2 | 0.00 | 0.00 | 0.00 | 50 | 1018.5 |
| 20260508140034 | 58 | 245 | 1.7 | 5.2 | 0.00 | 0.00 | 0.00 | 49 | 1018.5 |
| 20260508135530 | 57 | 44 | 0.0 | 2.6 | 0.00 | 0.00 | 0.00 | 54 | 1018.5 |
| 20260508135026 | 57 | 14 | 1.7 | 4.3 | 0.00 | 0.00 | 0.00 | 57 | 1018.5 |
| 20260508134021 | 56 | 36 | 0.0 | 2.6 | 0.00 | 0.00 | 0.00 | 57 | 1018.5 |
| 20260508133519 | 56 | 79 | 0.0 | 2.6 | 0.00 | 0.00 | 0.00 | 58 | 1018.5 |
| 20260508133017 | 55 | 30 | 0.0 | 1.7 | 0.00 | 0.00 | 0.00 | 59 | 1018.6 |
| 20260508132515 | 54 | 25 | 0.0 | 1.7 | 0.00 | 0.00 | 0.00 | 60 | 1018.6 |
| 20260508132016 | 53 | 111 | 0.0 | 2.6 | 0.00 | 0.00 | 0.00 | 63 | 1018.6 |
| 20260508131512 | 53 | 351 | 0.9 | 2.6 | 0.00 | 0.00 | 0.00 | 64 | 1018.5 |
| 20260508131010 | 52 | 19 | 0.0 | 2.6 | 0.00 | 0.00 | 0.00 | 66 | 1018.5 |
| 20260508130509 | 52 | 20 | 0.9 | 2.6 | 0.00 | 0.00 | 0.00 | 68 | 1018.4 |
| 20260508130006 | 51 | 35 | 0.0 | 2.6 | 0.00 | 0.00 | 0.00 | 70 | 1018.4 |
| 20260508125504 | 51 | 75 | 0.0 | 1.7 | 0.00 | 0.00 | 0.00 | 72 | 1018.4 |
| 20260508125001 | 50 | 334 | 0.0 | 1.7 | 0.00 | 0.00 | 0.00 | 74 | 1018.3 |
| 20260508124100 | 49 | 356 | 0.0 | 0.0 | 0.00 | 0.00 | 0.00 | 78 | 1018.2 |
| 20260508123600 | 48 | 355 | 0.0 | 0.0 | 0.00 | 0.00 | 0.00 | 78 | 1018.2 |
| 20260508123107 | 47 | 288 | 0.0 | 0.0 | 0.00 | 0.00 | 0.00 | 78 | 1018.1 |
| 20260508122558 | 47 | 304 | 0.0 | 0.0 | 0.00 | 0.00 | 0.00 | 78 | 1018.2 |
| 20260508122059 | 46 | 349 | 0.0 | 0.9 | 0.00 | 0.00 | 0.00 | 78 | 1018.1 |
| 20260508121557 | 46 | 349 | 0.0 | 0.9 | 0.00 | 0.00 | 0.00 | 78 | 1018.1 |
| 20260508121055 | 45 | 347 | 0.0 | 1.7 | 0.00 | 0.00 | 0.00 | 78 | 1018.1 |
| 20260508120554 | 45 | 325 | 0.0 | 1.7 | 0.00 | 0.00 | 0.00 | 78 | 1017.9 |
| 20260508120054 | 44 | 353 | 0.9 | 1.7 | 0.00 | 0.14 | 0.00 | 78 | 1018.0 |
| 20260508115553 | 44 | 329 | 0.0 | 0.9 | 0.00 | 0.14 | 0.00 | 78 | 1018.0 |
| 20260508115052 | 43 | 327 | 0.0 | 0.9 | 0.00 | 0.14 | 0.00 | 78 | 1017.9 |
| 20260508114050 | 42 | 327 | 0.0 | 0.9 | 0.00 | 0.14 | 0.00 | 78 | 1017.6 |
| 20260508113549 | 42 | 326 | 0.0 | 0.0 | 0.00 | 0.14 | 0.00 | 78 | 1017.6 |
| 20260508113051 | 42 | 326 | 0.0 | 0.0 | 0.00 | 0.14 | 0.00 | 78 | 1017.5 |
| 20260508112546 | 42 | 327 | 0.0 | 0.0 | 0.00 | 0.14 | 0.00 | 78 | 1017.4 |
| 20260508112048 | 42 | 326 | 0.0 | 0.0 | 0.00 | 0.14 | 0.00 | 78 | 1017.3 |
| 20260508111547 | 41 | 326 | 0.0 | 0.0 | 0.00 | 0.14 | 0.00 | 78 | 1017.2 |
| 20260508111044 | 41 | 326 | 0.0 | 0.0 | 0.00 | 0.14 | 0.00 | 78 | 1017.0 |
| 20260508110542 | 41 | 326 | 0.0 | 0.0 | 0.00 | 0.14 | 0.00 | 78 | 1016.9 |
| 20260508110047 | 41 | 326 | 0.0 | 0.0 | 0.00 | 0.16 | 0.00 | 78 | 1016.8 |
| 20260508105543 | 41 | 326 | 0.0 | 0.9 | 0.00 | 0.16 | 0.00 | 78 | 1016.9 |
| 20260508105039 | 41 | 326 | 0.0 | 0.9 | 0.00 | 0.16 | 0.00 | 78 | 1016.9 |
| 20260508104040 | 41 | 321 | 0.0 | 0.0 | 0.00 | 0.16 | 0.00 | 78 | 1016.5 |
| 20260508103541 | 41 | 321 | 0.0 | 0.0 | 0.00 | 0.16 | 0.00 | 78 | 1016.4 |
| 20260508103038 | 41 | 284 | 0.0 | 0.9 | 0.00 | 0.16 | 0.00 | 77 | 1016.3 |
| 20260508102536 | 41 | 314 | 0.0 | 0.0 | 0.00 | 0.16 | 0.00 | 77 | 1016.2 |
| 20260508102034 | 41 | 320 | 0.0 | 0.0 | 0.00 | 0.16 | 0.00 | 77 | 1016.1 |
| 20260508101534 | 41 | 320 | 0.0 | 0.9 | 0.00 | 0.16 | 0.00 | 77 | 1016.0 |
| 20260508101035 | 42 | 320 | 0.0 | 0.9 | 0.00 | 0.16 | 0.00 | 78 | 1016.0 |
| 20260508100532 | 41 | 286 | 0.0 | 0.0 | 0.00 | 0.16 | 0.00 | 77 | 1015.8 |
| 20260508100031 | 41 | 285 | 0.0 | 0.0 | 0.00 | 0.16 | 0.00 | 77 | 1015.8 |
| 20260508095529 | 41 | 285 | 0.0 | 0.0 | 0.00 | 0.16 | 0.00 | 77 | 1015.8 |
| 20260508095028 | 42 | 285 | 0.0 | 0.0 | 0.00 | 0.16 | 0.00 | 77 | 1015.8 |
| 20260508094026 | 42 | 286 | 0.0 | 0.9 | 0.00 | 0.16 | 0.00 | 77 | 1015.7 |
| 20260508093524 | 42 | 285 | 0.0 | 0.9 | 0.00 | 0.16 | 0.00 | 77 | 1015.6 |
| 20260508093026 | 42 | 42 | 0.0 | 0.9 | 0.00 | 0.16 | 0.00 | 77 | 1015.6 |
| 20260508092522 | 42 | 311 | 0.0 | 0.9 | 0.00 | 0.16 | 0.00 | 77 | 1015.7 |
| 20260508092023 | 42 | 324 | 0.0 | 1.7 | 0.00 | 0.16 | 0.00 | 77 | 1015.6 |
| 20260508091526 | 43 | 328 | 0.0 | 2.6 | 0.00 | 0.16 | 0.00 | 77 | 1015.6 |
| 20260508091022 | 43 | 11 | 0.9 | 2.6 | 0.00 | 0.16 | 0.00 | 77 | 1015.7 |
| 20260508090519 | 43 | 359 | 0.0 | 0.9 | 0.00 | 0.16 | 0.00 | 76 | 1015.7 |
| 20260508090022 | 42 | 235 | 0.0 | 0.0 | 0.00 | 0.16 | 0.00 | 76 | 1015.5 |
| 20260508085517 | 43 | 236 | 0.0 | 0.9 | 0.00 | 0.16 | 0.00 | 76 | 1015.5 |
| 20260508085016 | 43 | 322 | 0.0 | 0.9 | 0.00 | 0.16 | 0.00 | 76 | 1015.4 |
| 20260508084016 | 43 | 332 | 0.0 | 0.9 | 0.00 | 0.16 | 0.00 | 76 | 1015.3 |
| 20260508083513 | 43 | 278 | 0.0 | 0.9 | 0.00 | 0.16 | 0.00 | 75 | 1015.2 |
| 20260508083012 | 43 | 349 | 0.0 | 0.9 | 0.00 | 0.16 | 0.00 | 75 | 1015.2 |
| 20260508082512 | 43 | 349 | 0.0 | 0.9 | 0.00 | 0.16 | 0.00 | 75 | 1015.2 |
| 20260508082010 | 43 | 328 | 0.0 | 0.0 | 0.00 | 0.16 | 0.00 | 75 | 1015.3 |
| 20260508081510 | 43 | 349 | 0.0 | 0.9 | 0.00 | 0.16 | 0.00 | 74 | 1015.1 |
| 20260508081009 | 43 | 356 | 0.0 | 0.9 | 0.00 | 0.16 | 0.00 | 74 | 1015.0 |
| 20260508080515 | 44 | 333 | 0.0 | 0.9 | 0.00 | 0.16 | 0.00 | 73 | 1015.0 |
| 20260508080006 | 44 | 333 | 0.0 | 0.9 | 0.00 | 0.16 | 0.00 | 73 | 1015.0 |
| 20260508075506 | 44 | 248 | 0.0 | 0.9 | 0.00 | 0.16 | 0.00 | 73 | 1014.9 |
| 20260508075005 | 44 | 342 | 0.0 | 0.9 | 0.00 | 0.16 | 0.00 | 73 | 1014.9 |
| 20260508074004 | 44 | 56 | 0.0 | 0.9 | 0.00 | 0.16 | 0.00 | 72 | 1014.8 |
| 20260508073502 | 44 | 243 | 0.0 | 0.9 | 0.00 | 0.16 | 0.00 | 72 | 1014.7 |
| 20260508073000 | 44 | 293 | 0.0 | 0.9 | 0.00 | 0.16 | 0.00 | 71 | 1014.5 |
| 20260508072600 | 44 | 6 | 0.0 | 0.9 | 0.00 | 0.16 | 0.00 | 71 | 1014.7 |
| 20260508072059 | 44 | 345 | 0.0 | 0.0 | 0.00 | 0.16 | 0.00 | 70 | 1014.6 |
| 20260508071559 | 44 | 328 | 0.0 | 0.0 | 0.00 | 0.16 | 0.00 | 69 | 1014.6 |
| 20260508071057 | 44 | 344 | 0.0 | 0.0 | 0.00 | 0.16 | 0.00 | 69 | 1014.5 |
| 20260508070558 | 45 | 64 | 0.0 | 0.0 | 0.00 | 0.16 | 0.00 | 68 | 1014.5 |
| 20260508065553 | 45 | 352 | 0.0 | 0.0 | 0.00 | 0.16 | 0.00 | 68 | 1014.4 |
| 20260508065053 | 45 | 8 | 0.0 | 0.0 | 0.00 | 0.16 | 0.00 | 67 | 1014.3 |
| 20260508064058 | 45 | 12 | 0.0 | 0.0 | 0.00 | 0.16 | 0.00 | 67 | 1014.2 |
| 20260508063556 | 45 | 358 | 0.0 | 0.0 | 0.00 | 0.16 | 0.00 | 66 | 1014.4 |
| 20260508063057 | 45 | 106 | 0.0 | 0.0 | 0.00 | 0.16 | 0.00 | 66 | 1014.3 |
| 20260508062554 | 46 | 342 | 0.0 | 0.0 | 0.00 | 0.16 | 0.00 | 66 | 1014.2 |
| 20260508062053 | 46 | 70 | 0.0 | 0.0 | 0.00 | 0.16 | 0.00 | 66 | 1014.3 |
| 20260508061553 | 46 | 341 | 0.0 | 0.9 | 0.00 | 0.16 | 0.00 | 66 | 1014.2 |
| 20260508061054 | 46 | 326 | 0.0 | 0.9 | 0.00 | 0.16 | 0.00 | 66 | 1014.1 |
| 20260508060550 | 46 | 333 | 0.0 | 0.9 | 0.00 | 0.16 | 0.00 | 66 | 1014.1 |
| 20260508060055 | 46 | 324 | 0.0 | 0.9 | 0.00 | 0.20 | 0.00 | 66 | 1014.3 |
| 20260508055552 | 46 | 354 | 0.0 | 0.9 | 0.00 | 0.20 | 0.00 | 66 | 1014.2 |
| 20260508055048 | 46 | 354 | 0.0 | 0.9 | 0.00 | 0.20 | 0.00 | 66 | 1014.3 |
| 20260508054040 | 46 | 12 | 0.0 | 0.9 | 0.00 | 0.20 | 0.00 | 65 | 1014.1 |
| 20260508053538 | 47 | 30 | 0.0 | 0.9 | 0.00 | 0.20 | 0.00 | 65 | 1014.1 |
| 20260508053038 | 47 | 30 | 0.0 | 0.9 | 0.00 | 0.20 | 0.00 | 66 | 1014.1 |
| 20260508052537 | 47 | 338 | 0.0 | 0.9 | 0.00 | 0.20 | 0.00 | 65 | 1014.1 |
| 20260508052038 | 47 | 338 | 0.0 | 0.9 | 0.00 | 0.20 | 0.00 | 66 | 1014.0 |
| 20260508051534 | 47 | 338 | 0.0 | 2.6 | 0.00 | 0.20 | 0.00 | 66 | 1014.1 |
| 20260508051034 | 47 | 333 | 0.0 | 2.6 | 0.00 | 0.20 | 0.00 | 66 | 1014.0 |
| 20260508050533 | 47 | 344 | 0.0 | 1.7 | 0.00 | 0.20 | 0.00 | 66 | 1013.9 |
| 20260508050032 | 47 | 340 | 0.0 | 0.9 | 0.00 | 0.28 | 0.00 | 67 | 1013.9 |
| 20260508045530 | 48 | 326 | 0.0 | 0.9 | 0.00 | 0.28 | 0.00 | 67 | 1013.9 |
| 20260508045029 | 48 | 335 | 0.0 | 0.9 | 0.00 | 0.28 | 0.00 | 67 | 1013.9 |
| 20260508044029 | 48 | 335 | 0.0 | 0.9 | 0.00 | 0.28 | 0.00 | 67 | 1013.6 |
| 20260508043528 | 49 | 300 | 0.0 | 1.7 | 0.00 | 0.28 | 0.00 | 67 | 1013.5 |
| 20260508043028 | 49 | 344 | 0.0 | 1.7 | 0.00 | 0.28 | 0.00 | 67 | 1013.7 |
| 20260508042527 | 49 | 323 | 0.0 | 1.7 | 0.00 | 0.28 | 0.00 | 66 | 1013.5 |
| 20260508042027 | 48 | 311 | 0.0 | 1.7 | 0.00 | 0.28 | 0.00 | 67 | 1013.5 |
| 20260508041525 | 49 | 338 | 0.0 | 0.9 | 0.00 | 0.28 | 0.00 | 67 | 1013.4 |
| 20260508041025 | 49 | 1 | 0.0 | 1.7 | 0.00 | 0.28 | 0.00 | 66 | 1013.4 |
| 20260508040524 | 49 | 36 | 0.0 | 1.7 | 0.00 | 0.28 | 0.00 | 66 | 1013.5 |
| 20260508040020 | 49 | 341 | 0.0 | 0.9 | 0.00 | 0.28 | 0.28 | 66 | 1013.5 |
| 20260508035521 | 49 | 324 | 0.0 | 0.9 | 0.00 | 0.28 | 0.28 | 66 | 1013.6 |
| 20260508035019 | 49 | 355 | 0.0 | 1.7 | 0.00 | 0.28 | 0.28 | 65 | 1013.5 |
| 20260508034018 | 50 | 328 | 0.0 | 1.7 | 0.00 | 0.28 | 0.28 | 65 | 1013.6 |
| 20260508033519 | 50 | 345 | 0.0 | 1.7 | 0.00 | 0.28 | 0.28 | 64 | 1013.5 |
| 20260508033015 | 50 | 4 | 0.0 | 1.7 | 0.00 | 0.28 | 0.28 | 64 | 1013.5 |
| 20260508032515 | 50 | 345 | 0.0 | 1.7 | 0.00 | 0.28 | 0.28 | 64 | 1013.5 |
| 20260508032014 | 50 | 125 | 0.0 | 1.7 | 0.00 | 0.28 | 0.28 | 64 | 1013.4 |
| 20260508031515 | 50 | 347 | 0.0 | 1.7 | 0.00 | 0.28 | 0.28 | 64 | 1013.6 |
| 20260508031012 | 51 | 331 | 0.0 | 3.5 | 0.00 | 0.28 | 0.28 | 64 | 1013.6 |
| 20260508030511 | 51 | 319 | 0.9 | 3.5 | 0.00 | 0.28 | 0.28 | 64 | 1013.5 |
| 20260508030009 | 51 | 109 | 0.0 | 1.7 | 0.00 | 0.28 | 0.28 | 63 | 1013.6 |
| 20260508025507 | 51 | 11 | 0.0 | 2.6 | 0.00 | 0.28 | 0.28 | 63 | 1013.4 |
| 20260508025007 | 51 | 39 | 0.0 | 2.6 | 0.00 | 0.28 | 0.28 | 62 | 1013.4 |
| 20260508024004 | 52 | 162 | 0.0 | 1.7 | 0.00 | 0.28 | 0.28 | 60 | 1013.1 |
| 20260508023501 | 52 | 1 | 0.0 | 1.7 | 0.00 | 0.28 | 0.28 | 60 | 1012.9 |
| 20260508023100 | 53 | 8 | 0.0 | 1.7 | 0.00 | 0.28 | 0.28 | 60 | 1012.9 |
| 20260508022557 | 53 | 345 | 0.9 | 1.7 | 0.00 | 0.28 | 0.28 | 58 | 1012.7 |
| 20260508022058 | 54 | 94 | 0.0 | 1.7 | 0.00 | 0.28 | 0.28 | 58 | 1012.7 |
| 20260508021556 | 54 | 240 | 0.0 | 1.7 | 0.00 | 0.28 | 0.28 | 57 | 1012.6 |
| 20260508021052 | 54 | 340 | 0.0 | 1.7 | 0.00 | 0.28 | 0.28 | 56 | 1012.6 |
| 20260508020551 | 55 | 337 | 0.0 | 1.7 | 0.00 | 0.28 | 0.28 | 53 | 1012.6 |
| 20260508020050 | 57 | 32 | 0.0 | 3.5 | 0.00 | 0.31 | 0.28 | 49 | 1012.6 |
| 20260508015550 | 57 | 317 | 0.0 | 4.3 | 0.00 | 0.31 | 0.28 | 46 | 1012.3 |
| 20260508015048 | 57 | 116 | 1.7 | 4.3 | 0.00 | 0.31 | 0.28 | 46 | 1012.2 |
| 20260508014648 | 57 | 94 | 0.9 | 2.6 | 0.00 | 0.31 | 0.28 | 49 | 1012.1 |
| 20260508014048 | 57 | 30 | 0.9 | 2.6 | 0.00 | 0.31 | 0.28 | 49 | 1012.2 |
| 20260508013545 | 57 | 129 | 0.0 | 2.6 | 0.00 | 0.31 | 0.28 | 48 | 1012.0 |
| 20260508013045 | 56 | 43 | 0.9 | 2.6 | 0.00 | 0.31 | 0.28 | 49 | 1012.0 |
| 20260508012546 | 56 | 110 | 0.0 | 1.7 | 0.00 | 0.31 | 0.28 | 50 | 1011.7 |
| 20260508012042 | 57 | 144 | 0.0 | 1.7 | 0.00 | 0.31 | 0.28 | 51 | 1011.7 |
| 20260508011544 | 58 | 114 | 0.0 | 3.5 | 0.00 | 0.31 | 0.28 | 50 | 1011.5 |
| 20260508011040 | 58 | 137 | 0.9 | 3.5 | 0.00 | 0.31 | 0.28 | 48 | 1011.5 |
| 20260508010539 | 58 | 40 | 0.0 | 2.6 | 0.00 | 0.31 | 0.28 | 49 | 1011.6 |
| 20260508010037 | 58 | 218 | 0.0 | 5.2 | 0.00 | 0.43 | 0.28 | 48 | 1011.4 |
| 20260508005541 | 59 | 102 | 0.0 | 7.8 | 0.00 | 0.43 | 0.28 | 45 | 1011.4 |
| 20260508005037 | 59 | 131 | 3.5 | 7.8 | 0.00 | 0.43 | 0.28 | 44 | 1011.4 |
| 20260508004635 | 59 | 136 | 1.7 | 10.4 | 0.00 | 0.43 | 0.28 | 45 | 1011.3 |
| 20260508004037 | 59 | 77 | 4.3 | 10.4 | 0.00 | 0.43 | 0.28 | 45 | 1011.3 |
| 20260508003536 | 59 | 29 | 0.0 | 8.7 | 0.00 | 0.43 | 0.28 | 47 | 1011.2 |
| 20260508003038 | 59 | 304 | 0.0 | 8.7 | 0.00 | 0.43 | 0.28 | 46 | 1011.1 |
| 20260508002534 | 59 | 57 | 0.0 | 3.5 | 0.00 | 0.43 | 0.28 | 46 | 1011.2 |
| 20260508002034 | 59 | 135 | 0.9 | 8.7 | 0.00 | 0.43 | 0.28 | 47 | 1011.0 |
| 20260508001535 | 59 | 125 | 2.6 | 8.7 | 0.00 | 0.43 | 0.28 | 46 | 1011.0 |
| 20260508001032 | 59 | 138 | 0.0 | 4.3 | 0.00 | 0.43 | 0.28 | 49 | 1011.1 |
| 20260508000533 | 59 | 146 | 0.9 | 4.3 | 0.00 | 0.43 | 0.28 | 47 | 1011.0 |
| 20260508000029 | 59 | 303 | 0.9 | 5.2 | 0.00 | 0.51 | 0.28 | 48 | 1010.9 |
| 20260507235528 | 60 | 250 | 1.7 | 5.2 | 0.00 | 0.51 | 0.28 | 48 | 1010.9 |
| 20260507235026 | 61 | 127 | 1.7 | 5.2 | 0.00 | 0.51 | 0.28 | 47 | 1011.0 |
| 20260507234626 | 62 | 309 | 0.0 | 4.3 | 0.00 | 0.51 | 0.28 | 47 | 1010.9 |
| 20260507234021 | 62 | 213 | 0.0 | 4.3 | 0.00 | 0.51 | 0.28 | 47 | 1010.9 |
| 20260507233525 | 62 | 108 | 0.9 | 7.8 | 0.00 | 0.51 | 0.28 | 47 | 1010.9 |
| 20260507233023 | 62 | 323 | 3.5 | 7.8 | 0.00 | 0.51 | 0.28 | 45 | 1010.6 |
| 20260507232520 | 63 | 141 | 1.7 | 7.0 | 0.00 | 0.51 | 0.28 | 46 | 1010.7 |
| 20260507232020 | 63 | 60 | 3.5 | 10.4 | 0.00 | 0.51 | 0.28 | 45 | 1010.6 |
| 20260507231531 | 62 | 186 | 3.5 | 10.4 | 0.00 | 0.51 | 0.28 | 47 | 1010.6 |
| 20260507231021 | 62 | 124 | 4.3 | 10.4 | 0.00 | 0.51 | 0.28 | 47 | 1010.6 |
| 20260507230517 | 61 | 120 | 4.3 | 16.5 | 0.00 | 0.51 | 0.28 | 48 | 1010.5 |
| 20260507230016 | 62 | 122 | 6.1 | 16.5 | 0.00 | 0.51 | 0.28 | 47 | 1010.5 |
| 20260507225517 | 62 | 86 | 2.6 | 9.6 | 0.00 | 0.51 | 0.28 | 47 | 1010.4 |
| 20260507225016 | 62 | 79 | 3.5 | 13.0 | 0.00 | 0.51 | 0.28 | 47 | 1010.4 |
| 20260507224616 | 63 | 94 | 2.6 | 10.4 | 0.00 | 0.51 | 0.28 | 47 | 1010.3 |
| 20260507224115 | 63 | 105 | 1.7 | 7.8 | 0.00 | 0.51 | 0.28 | 48 | 1010.3 |
| 20260507223516 | 63 | 65 | 3.5 | 10.4 | 0.00 | 0.51 | 0.28 | 48 | 1010.2 |
| 20260507223014 | 63 | 113 | 5.2 | 11.3 | 0.00 | 0.51 | 0.28 | 48 | 1010.0 |
| 20260507222512 | 63 | 94 | 5.2 | 14.8 | 0.00 | 0.51 | 0.28 | 49 | 1009.8 |
| 20260507222011 | 63 | 136 | 5.2 | 15.6 | 0.00 | 0.51 | 0.28 | 49 | 1009.7 |
| 20260507221514 | 62 | 97 | 5.2 | 20.0 | 0.00 | 0.51 | 0.28 | 50 | 1009.6 |
| 20260507221013 | 63 | 62 | 7.8 | 20.0 | 0.00 | 0.51 | 0.28 | 49 | 1009.3 |
| 20260507220508 | 63 | 49 | 7.0 | 16.5 | 0.00 | 0.51 | 0.28 | 49 | 1009.7 |
| 20260507220008 | 63 | 138 | 5.2 | 17.4 | 0.00 | 0.51 | 0.28 | 50 | 1009.2 |
| 20260507215508 | 63 | 146 | 7.0 | 18.2 | 0.00 | 0.51 | 0.28 | 50 | 1009.0 |
| 20260507215008 | 63 | 131 | 7.8 | 18.2 | 0.00 | 0.51 | 0.28 | 50 | 1009.0 |
| 20260507214605 | 65 | 45 | 6.1 | 13.9 | 0.00 | 0.51 | 0.28 | 48 | 1008.7 |
| 20260507214007 | 65 | 97 | 5.2 | 13.9 | 0.00 | 0.51 | 0.28 | 47 | 1008.7 |
| 20260507213507 | 67 | 53 | 6.1 | 13.9 | 0.00 | 0.51 | 0.28 | 45 | 1008.6 |
| 20260507213006 | 69 | 111 | 6.1 | 12.2 | 0.00 | 0.51 | 0.28 | 44 | 1008.3 |
| 20260507212506 | 70 | 60 | 3.5 | 9.6 | 0.00 | 0.51 | 0.28 | 44 | 1008.3 |
| 20260507212004 | 70 | 191 | 3.5 | 8.7 | 0.00 | 0.51 | 0.28 | 43 | 1008.3 |
| 20260507211510 | 71 | 37 | 2.6 | 8.7 | 0.00 | 0.51 | 0.28 | 43 | 1008.2 |
| 20260507211006 | 71 | 333 | 1.7 | 14.8 | 0.00 | 0.51 | 0.28 | 44 | 1008.0 |
| 20260507210508 | 69 | 96 | 2.6 | 14.8 | 0.00 | 0.51 | 0.28 | 45 | 1007.8 |